User: anonymous   Login
Location: Unspecified
(0.0000°N, 0.0000°E)
Time: 20:05:46
(UTC+00:00)
Language:

FALCONSAT 3 - Orbit

View from above orbital plane
View from above orbital plane
View from above satellite
View from above satellite

Ground track
Ground track

The orbit data is extracted from the following two-line orbital elements,

1 30776U 07006E   19340.57676785  .00002129  00000-0  59070-4 0  9993
2 30776  35.4353  79.5560 0003052 234.2724 125.7719 15.36888083706986
Epoch (UTC): 06 December 2019 13:50:32
Eccentricity: 0.0003052
inclination: 35.4353°
perigee height: 453 km
apogee height: 457 km
right ascension of ascending node: 79.5560°
argument of perigee: 234.2724°
revolutions per day: 15.36888083
mean anomaly at epoch: 125.7719°
orbit number at epoch: 70698

The dashed part of the orbit path shows where the satellite is in the earth's shadow,  

DLR